Year,Month,Day,Hour,Minute,Value (Times are PST for temperature in C)
2019,10,28,00,00,2.60
2019,10,28,00,01,2.60
2019,10,28,00,02,2.50
2019,10,28,00,03,2.50
2019,10,28,00,04,2.50
2019,10,28,00,05,2.50
2019,10,28,00,06,2.50
2019,10,28,00,07,2.50
2019,10,28,00,08,2.50
2019,10,28,00,09,2.40
2019,10,28,00,10,2.40
2019,10,28,00,11,2.40
2019,10,28,00,12,2.40
2019,10,28,00,13,2.40
2019,10,28,00,14,2.40
2019,10,28,00,15,2.40
2019,10,28,00,16,2.40
2019,10,28,00,17,2.40
2019,10,28,00,18,2.40
2019,10,28,00,19,2.40
2019,10,28,00,20,2.30
2019,10,28,00,21,2.30
2019,10,28,00,22,2.30
2019,10,28,00,23,2.30
2019,10,28,00,24,2.30
2019,10,28,00,25,2.30
2019,10,28,00,26,2.20
2019,10,28,00,27,2.20
2019,10,28,00,28,2.20
2019,10,28,00,29,2.20
2019,10,28,00,30,2.20
2019,10,28,00,31,2.10
2019,10,28,00,32,2.10
2019,10,28,00,33,2.10
2019,10,28,00,34,2.10
2019,10,28,00,35,2.10
2019,10,28,00,36,2.20
2019,10,28,00,37,2.20
2019,10,28,00,38,2.20
2019,10,28,00,39,2.30
2019,10,28,00,40,2.30
2019,10,28,00,41,2.30
2019,10,28,00,42,2.30
2019,10,28,00,43,2.40
2019,10,28,00,44,2.40
2019,10,28,00,45,2.40
2019,10,28,00,46,2.40
2019,10,28,00,47,2.40
2019,10,28,00,48,2.40
2019,10,28,00,49,2.40
2019,10,28,00,50,2.40
2019,10,28,00,51,2.40
2019,10,28,00,52,2.40
2019,10,28,00,53,2.40
2019,10,28,00,54,2.40
2019,10,28,00,55,2.40
2019,10,28,00,56,2.40
2019,10,28,00,57,2.40
2019,10,28,00,58,2.40
2019,10,28,00,59,2.40
2019,10,28,01,00,2.40
2019,10,28,01,01,2.40
2019,10,28,01,02,2.40
2019,10,28,01,03,2.40
2019,10,28,01,04,2.40
2019,10,28,01,05,2.40
2019,10,28,01,06,2.50
2019,10,28,01,07,2.50
2019,10,28,01,08,2.50
2019,10,28,01,09,2.60
2019,10,28,01,10,2.60
2019,10,28,01,11,2.60
2019,10,28,01,12,2.50
2019,10,28,01,13,2.50
2019,10,28,01,14,2.50
2019,10,28,01,15,2.40
2019,10,28,01,16,2.40
2019,10,28,01,17,2.30
2019,10,28,01,18,2.30
2019,10,28,01,19,2.20
2019,10,28,01,20,2.20
2019,10,28,01,21,2.20
2019,10,28,01,22,2.10
2019,10,28,01,23,2.10
2019,10,28,01,24,2.10
2019,10,28,01,25,2.10
2019,10,28,01,26,2.00
2019,10,28,01,27,2.00
2019,10,28,01,28,2.00
2019,10,28,01,29,2.00
2019,10,28,01,30,2.00
2019,10,28,01,31,2.00
2019,10,28,01,32,2.00
2019,10,28,01,33,2.00
2019,10,28,01,34,2.00
2019,10,28,01,35,2.00
2019,10,28,01,36,2.00
2019,10,28,01,37,1.90
2019,10,28,01,38,1.90
2019,10,28,01,39,1.90
2019,10,28,01,40,1.90
2019,10,28,01,41,1.90
2019,10,28,01,42,1.90
2019,10,28,01,43,1.90
2019,10,28,01,44,1.90
2019,10,28,01,45,1.90
2019,10,28,01,46,1.90
2019,10,28,01,47,1.90
2019,10,28,01,48,1.90
2019,10,28,01,49,1.90
2019,10,28,01,50,1.90
2019,10,28,01,51,1.90
2019,10,28,01,52,1.90
2019,10,28,01,53,1.90
2019,10,28,01,54,1.90
2019,10,28,01,55,2.00
2019,10,28,01,56,2.00
2019,10,28,01,57,2.10
2019,10,28,01,58,2.10
2019,10,28,01,59,2.10
2019,10,28,02,00,2.20
2019,10,28,02,01,2.20
2019,10,28,02,02,2.20
2019,10,28,02,03,2.20
2019,10,28,02,04,2.20
2019,10,28,02,05,2.20
2019,10,28,02,06,2.20
2019,10,28,02,07,2.20
2019,10,28,02,08,2.20
2019,10,28,02,09,2.20
2019,10,28,02,10,2.10
2019,10,28,02,11,2.10
2019,10,28,02,12,2.10
2019,10,28,02,13,2.10
2019,10,28,02,14,2.10
2019,10,28,02,15,2.00
2019,10,28,02,16,2.00
2019,10,28,02,17,2.00
2019,10,28,02,18,1.90
2019,10,28,02,19,1.80
2019,10,28,02,20,1.80
2019,10,28,02,21,1.70
2019,10,28,02,22,1.70
2019,10,28,02,23,1.70
2019,10,28,02,24,1.60
2019,10,28,02,25,1.60
2019,10,28,02,26,1.60
2019,10,28,02,27,1.50
2019,10,28,02,28,1.50
2019,10,28,02,29,1.50
2019,10,28,02,30,1.50
2019,10,28,02,31,1.50
2019,10,28,02,32,1.50
2019,10,28,02,33,1.50
2019,10,28,02,34,1.40
2019,10,28,02,35,1.40
2019,10,28,02,36,1.40
2019,10,28,02,37,1.40
2019,10,28,02,38,1.50
2019,10,28,02,39,1.50
2019,10,28,02,40,1.50
2019,10,28,02,41,1.50
2019,10,28,02,42,1.60
2019,10,28,02,43,1.60
2019,10,28,02,44,1.70
2019,10,28,02,45,1.70
2019,10,28,02,46,1.80
2019,10,28,02,47,1.80
2019,10,28,02,48,1.80
2019,10,28,02,49,1.90
2019,10,28,02,50,1.90
2019,10,28,02,51,1.90
2019,10,28,02,52,1.80
2019,10,28,02,53,1.80
2019,10,28,02,54,1.80
2019,10,28,02,55,1.80
2019,10,28,02,56,1.80
2019,10,28,02,57,1.80
2019,10,28,02,58,1.80
2019,10,28,02,59,1.80
2019,10,28,03,00,1.80
2019,10,28,03,01,1.80
2019,10,28,03,02,1.80
2019,10,28,03,03,1.80
2019,10,28,03,04,1.80
2019,10,28,03,05,1.70
2019,10,28,03,06,1.70
2019,10,28,03,07,1.70
2019,10,28,03,08,1.60
2019,10,28,03,09,1.60
2019,10,28,03,10,1.60
2019,10,28,03,11,1.60
2019,10,28,03,12,1.60
2019,10,28,03,13,1.50
2019,10,28,03,14,1.50
2019,10,28,03,15,1.60
2019,10,28,03,16,1.60
2019,10,28,03,17,1.70
2019,10,28,03,18,1.80
2019,10,28,03,19,1.90
2019,10,28,03,20,1.90
2019,10,28,03,21,1.90
2019,10,28,03,22,1.90
2019,10,28,03,23,1.90
2019,10,28,03,24,1.90
2019,10,28,03,25,1.90
2019,10,28,03,26,1.90
2019,10,28,03,27,1.90
2019,10,28,03,28,1.80
2019,10,28,03,29,1.80
2019,10,28,03,30,1.70
2019,10,28,03,31,1.70
2019,10,28,03,32,1.60
2019,10,28,03,33,1.60
2019,10,28,03,34,1.60
2019,10,28,03,35,1.60
2019,10,28,03,36,1.50
2019,10,28,03,37,1.50
2019,10,28,03,38,1.50
2019,10,28,03,39,1.50
2019,10,28,03,40,1.50
2019,10,28,03,41,1.40
2019,10,28,03,42,1.40
2019,10,28,03,43,1.40
2019,10,28,03,44,1.40
2019,10,28,03,45,1.40
2019,10,28,03,46,1.40
2019,10,28,03,47,1.40
2019,10,28,03,48,1.40
2019,10,28,03,49,1.40
2019,10,28,03,50,1.40
2019,10,28,03,51,1.40
2019,10,28,03,52,1.50
2019,10,28,03,53,1.40
2019,10,28,03,54,1.40
2019,10,28,03,55,1.40
2019,10,28,03,56,1.40
2019,10,28,03,57,1.40
2019,10,28,03,58,1.40
2019,10,28,03,59,1.30
2019,10,28,04,00,1.30
2019,10,28,04,01,1.30
2019,10,28,04,02,1.40
2019,10,28,04,03,1.40
2019,10,28,04,04,1.40
2019,10,28,04,05,1.50
2019,10,28,04,06,1.50
2019,10,28,04,07,1.50
2019,10,28,04,08,1.50
2019,10,28,04,09,1.50
2019,10,28,04,10,1.40
2019,10,28,04,11,1.40
2019,10,28,04,12,1.40
2019,10,28,04,13,1.40
2019,10,28,04,14,1.40
2019,10,28,04,15,1.40
2019,10,28,04,16,1.30
2019,10,28,04,17,1.30
2019,10,28,04,18,1.30
2019,10,28,04,19,1.30
2019,10,28,04,20,1.30
2019,10,28,04,21,1.20
2019,10,28,04,22,1.20
2019,10,28,04,23,1.20
2019,10,28,04,24,1.20
2019,10,28,04,25,1.20
2019,10,28,04,26,1.10
2019,10,28,04,27,1.10
2019,10,28,04,28,1.10
2019,10,28,04,29,1.10
2019,10,28,04,30,1.10
2019,10,28,04,31,1.10
2019,10,28,04,32,1.10
2019,10,28,04,33,1.10
2019,10,28,04,34,1.10
2019,10,28,04,35,1.10
2019,10,28,04,36,1.10
2019,10,28,04,37,1.10
2019,10,28,04,38,1.10
2019,10,28,04,39,1.10
2019,10,28,04,40,1.10
2019,10,28,04,41,1.10
2019,10,28,04,42,1.10
2019,10,28,04,43,1.10
2019,10,28,04,44,1.20
2019,10,28,04,45,1.20
2019,10,28,04,46,1.30
2019,10,28,04,47,1.30
2019,10,28,04,48,1.30
2019,10,28,04,49,1.30
2019,10,28,04,50,1.30
2019,10,28,04,51,1.30
2019,10,28,04,52,1.30
2019,10,28,04,53,1.30
2019,10,28,04,54,1.30
2019,10,28,04,55,1.30
2019,10,28,04,56,1.30
2019,10,28,04,57,1.30
2019,10,28,04,58,1.30
2019,10,28,04,59,1.30
2019,10,28,05,00,1.30
2019,10,28,05,01,1.30
2019,10,28,05,02,1.30
2019,10,28,05,03,1.30
2019,10,28,05,04,1.30
2019,10,28,05,05,1.30
2019,10,28,05,06,1.30
2019,10,28,05,07,1.30
2019,10,28,05,08,1.30
2019,10,28,05,09,1.20
2019,10,28,05,10,1.20
2019,10,28,05,11,1.20
2019,10,28,05,12,1.20
2019,10,28,05,13,1.10
2019,10,28,05,14,1.10
2019,10,28,05,15,1.10
2019,10,28,05,16,1.00
2019,10,28,05,17,1.00
2019,10,28,05,18,0.90
2019,10,28,05,19,0.90
2019,10,28,05,20,0.90
2019,10,28,05,21,0.90
2019,10,28,05,22,0.90
2019,10,28,05,23,0.90
2019,10,28,05,24,0.90
2019,10,28,05,25,0.90
2019,10,28,05,26,0.90
2019,10,28,05,27,0.90
2019,10,28,05,28,0.90
2019,10,28,05,29,0.80
2019,10,28,05,30,0.80
2019,10,28,05,31,0.80
2019,10,28,05,32,0.80
2019,10,28,05,33,0.80
2019,10,28,05,34,0.80
2019,10,28,05,35,0.80
2019,10,28,05,36,0.80
2019,10,28,05,37,0.90
2019,10,28,05,38,0.90
2019,10,28,05,39,0.90
2019,10,28,05,40,1.00
2019,10,28,05,41,1.00
2019,10,28,05,42,1.10
2019,10,28,05,43,1.10
2019,10,28,05,44,1.20
2019,10,28,05,45,1.20
2019,10,28,05,46,1.30
2019,10,28,05,47,1.30
2019,10,28,05,48,1.30
2019,10,28,05,49,1.30
2019,10,28,05,50,1.30
2019,10,28,05,51,1.30
2019,10,28,05,52,1.30
2019,10,28,05,53,1.30
2019,10,28,05,54,1.30
2019,10,28,05,55,1.20
2019,10,28,05,56,1.20
2019,10,28,05,57,1.20
2019,10,28,05,58,1.20
2019,10,28,05,59,1.10
2019,10,28,06,00,1.10
2019,10,28,06,01,1.10
2019,10,28,06,02,1.00
2019,10,28,06,03,1.00
2019,10,28,06,04,1.00
2019,10,28,06,05,0.90
2019,10,28,06,06,0.90
2019,10,28,06,07,0.90
2019,10,28,06,08,0.90
2019,10,28,06,09,0.80
2019,10,28,06,10,0.80
2019,10,28,06,11,0.80
2019,10,28,06,12,0.80
2019,10,28,06,13,0.80
2019,10,28,06,14,0.80
2019,10,28,06,15,0.80
2019,10,28,06,16,0.80
2019,10,28,06,17,0.80
2019,10,28,06,18,0.80
2019,10,28,06,19,0.80
2019,10,28,06,20,0.80
2019,10,28,06,21,0.80
2019,10,28,06,22,0.80
2019,10,28,06,23,0.80
2019,10,28,06,24,0.80
2019,10,28,06,25,0.80
2019,10,28,06,26,0.80
2019,10,28,06,27,0.80
2019,10,28,06,28,0.80
2019,10,28,06,29,0.80
2019,10,28,06,30,0.80
2019,10,28,06,31,0.80
2019,10,28,06,32,0.80
2019,10,28,06,33,0.80
2019,10,28,06,34,0.80
2019,10,28,06,35,0.80
2019,10,28,06,36,0.80
2019,10,28,06,37,0.80
2019,10,28,06,38,0.70
2019,10,28,06,39,0.70
2019,10,28,06,40,0.70
2019,10,28,06,41,0.70
2019,10,28,06,42,0.80
2019,10,28,06,43,0.80
2019,10,28,06,44,0.80
2019,10,28,06,45,0.80
2019,10,28,06,46,0.80
2019,10,28,06,47,0.90
2019,10,28,06,48,0.90
2019,10,28,06,49,0.90
2019,10,28,06,50,0.90
2019,10,28,06,51,0.90
2019,10,28,06,52,0.90
2019,10,28,06,53,0.90
2019,10,28,06,54,0.90
2019,10,28,06,55,0.90
2019,10,28,06,56,0.90
2019,10,28,06,57,1.00
2019,10,28,06,58,1.10
2019,10,28,06,59,1.10
2019,10,28,07,00,1.10
2019,10,28,07,01,1.10
2019,10,28,07,02,1.10
2019,10,28,07,03,1.10
2019,10,28,07,04,1.00
2019,10,28,07,05,1.00
2019,10,28,07,06,1.00
2019,10,28,07,07,0.90
2019,10,28,07,08,0.90
2019,10,28,07,09,0.80
2019,10,28,07,10,0.80
2019,10,28,07,11,0.70
2019,10,28,07,12,0.70
2019,10,28,07,13,0.70
2019,10,28,07,14,0.70
2019,10,28,07,15,0.70
2019,10,28,07,16,0.70
2019,10,28,07,17,0.70
2019,10,28,07,18,0.70
2019,10,28,07,19,0.80
2019,10,28,07,20,0.80
2019,10,28,07,21,0.80
2019,10,28,07,22,0.80
2019,10,28,07,23,0.80
2019,10,28,07,24,0.80
2019,10,28,07,25,0.90
2019,10,28,07,26,0.90
2019,10,28,07,27,1.00
2019,10,28,07,28,1.10
2019,10,28,07,29,1.20
2019,10,28,07,30,1.50
2019,10,28,07,31,1.60
2019,10,28,07,32,1.80
2019,10,28,07,33,2.00
2019,10,28,07,34,2.00
2019,10,28,07,35,1.90
2019,10,28,07,36,1.80
2019,10,28,07,37,1.70
2019,10,28,07,38,1.60
2019,10,28,07,39,1.50
2019,10,28,07,40,1.40
2019,10,28,07,41,1.30
2019,10,28,07,42,1.30
2019,10,28,07,43,1.20
2019,10,28,07,44,1.20
2019,10,28,07,45,1.20
2019,10,28,07,46,1.20
2019,10,28,07,47,1.10
2019,10,28,07,48,1.10
2019,10,28,07,49,1.10
2019,10,28,07,50,1.10
2019,10,28,07,51,1.10
2019,10,28,07,52,1.10
2019,10,28,07,53,1.10
2019,10,28,07,54,1.20
2019,10,28,07,55,1.20
2019,10,28,07,56,1.20
2019,10,28,07,57,1.20
2019,10,28,07,58,1.20
2019,10,28,07,59,1.20
2019,10,28,08,00,1.20
2019,10,28,08,01,1.20
2019,10,28,08,02,1.20
2019,10,28,08,03,1.20
2019,10,28,08,04,1.10
2019,10,28,08,05,1.10
2019,10,28,08,06,1.20
2019,10,28,08,07,1.20
2019,10,28,08,08,1.20
2019,10,28,08,09,1.20
2019,10,28,08,10,1.20
2019,10,28,08,11,1.20
2019,10,28,08,12,1.30
2019,10,28,08,13,1.30
2019,10,28,08,14,1.30
2019,10,28,08,15,1.40
2019,10,28,08,16,1.50
2019,10,28,08,17,1.60
2019,10,28,08,18,1.70
2019,10,28,08,19,1.70
2019,10,28,08,20,1.80
2019,10,28,08,21,1.80
2019,10,28,08,22,1.90
2019,10,28,08,23,2.00
2019,10,28,08,24,2.00
2019,10,28,08,25,2.10
2019,10,28,08,26,2.20
2019,10,28,08,27,2.10
2019,10,28,08,28,2.10
2019,10,28,08,29,2.00
2019,10,28,08,30,2.00
2019,10,28,08,31,2.00
2019,10,28,08,32,1.90
2019,10,28,08,33,1.90
2019,10,28,08,34,1.90
2019,10,28,08,35,1.90
2019,10,28,08,36,1.90
2019,10,28,08,37,1.80
2019,10,28,08,38,1.80
2019,10,28,08,39,1.80
2019,10,28,08,40,1.80
2019,10,28,08,41,1.80
2019,10,28,08,42,1.80
2019,10,28,08,43,1.80
2019,10,28,08,44,1.80
2019,10,28,08,45,1.80
2019,10,28,08,46,1.80
2019,10,28,08,47,1.80
2019,10,28,08,48,1.80
2019,10,28,08,49,1.90
2019,10,28,08,50,1.90
2019,10,28,08,51,1.90
2019,10,28,08,52,2.00
2019,10,28,08,53,2.00
2019,10,28,08,54,2.10
2019,10,28,08,55,2.10
2019,10,28,08,56,2.10
2019,10,28,08,57,2.10
2019,10,28,08,58,2.10
2019,10,28,08,59,2.20
2019,10,28,09,00,2.20
2019,10,28,09,01,2.30
2019,10,28,09,02,2.40
2019,10,28,09,03,2.40
2019,10,28,09,04,2.50
2019,10,28,09,05,2.60
2019,10,28,09,06,2.70
2019,10,28,09,07,2.80
2019,10,28,09,08,2.90
2019,10,28,09,09,3.00
2019,10,28,09,10,3.10
2019,10,28,09,11,3.10
2019,10,28,09,12,3.20
2019,10,28,09,13,3.30
2019,10,28,09,14,3.50
2019,10,28,09,15,3.60
2019,10,28,09,16,3.70
2019,10,28,09,17,3.90
2019,10,28,09,18,4.00
2019,10,28,09,19,4.20
2019,10,28,09,20,4.30
2019,10,28,09,21,4.50
2019,10,28,09,22,4.60
2019,10,28,09,23,4.70
2019,10,28,09,24,4.90
2019,10,28,09,25,5.00
2019,10,28,09,26,5.10
2019,10,28,09,27,5.20
2019,10,28,09,28,5.30
2019,10,28,09,29,5.30
2019,10,28,09,30,5.40
2019,10,28,09,31,5.50
2019,10,28,09,32,5.60
2019,10,28,09,33,5.70
2019,10,28,09,34,5.80
2019,10,28,09,35,5.80
2019,10,28,09,36,5.90
2019,10,28,09,37,6.00
2019,10,28,09,38,6.10
2019,10,28,09,39,6.10
2019,10,28,09,40,6.20
2019,10,28,09,41,6.30
2019,10,28,09,42,6.30
2019,10,28,09,43,6.30
2019,10,28,09,44,6.40
2019,10,28,09,45,6.40
2019,10,28,09,46,6.50
2019,10,28,09,47,6.50
2019,10,28,09,48,6.60
2019,10,28,09,49,6.60
2019,10,28,09,50,6.70
2019,10,28,09,51,6.80
2019,10,28,09,52,6.80
2019,10,28,09,53,6.80
2019,10,28,09,54,6.90
2019,10,28,09,55,6.90
2019,10,28,09,56,6.90
2019,10,28,09,57,7.00
2019,10,28,09,58,7.00
2019,10,28,09,59,7.10
2019,10,28,10,00,7.10
2019,10,28,10,01,7.10
2019,10,28,10,02,7.10
2019,10,28,10,03,7.10
2019,10,28,10,04,7.20
2019,10,28,10,05,7.20
2019,10,28,10,06,7.20
2019,10,28,10,07,7.30
2019,10,28,10,08,7.30
2019,10,28,10,09,7.30
2019,10,28,10,10,7.30
2019,10,28,10,11,7.40
2019,10,28,10,12,7.40
2019,10,28,10,13,7.40
2019,10,28,10,14,7.40
2019,10,28,10,15,7.40
2019,10,28,10,16,7.50
2019,10,28,10,17,7.50
2019,10,28,10,18,7.50
2019,10,28,10,19,7.60
2019,10,28,10,20,7.60
2019,10,28,10,21,7.60
2019,10,28,10,22,7.60
2019,10,28,10,23,7.60
2019,10,28,10,24,7.70
2019,10,28,10,25,7.70
2019,10,28,10,26,7.80
2019,10,28,10,27,7.90
2019,10,28,10,28,7.90
2019,10,28,10,29,7.90
2019,10,28,10,30,7.90
2019,10,28,10,31,7.90
2019,10,28,10,32,7.90
2019,10,28,10,33,7.90
2019,10,28,10,34,7.90
2019,10,28,10,35,8.00
2019,10,28,10,36,8.00
2019,10,28,10,37,8.00
2019,10,28,10,38,8.00
2019,10,28,10,39,8.00
2019,10,28,10,40,8.00
2019,10,28,10,41,8.00
2019,10,28,10,42,8.00
2019,10,28,10,43,8.00
2019,10,28,10,44,8.10
2019,10,28,10,45,8.10
2019,10,28,10,46,8.00
2019,10,28,10,47,8.00
2019,10,28,10,48,8.00
2019,10,28,10,49,8.00
2019,10,28,10,50,7.90
2019,10,28,10,51,7.90
2019,10,28,10,52,7.90
2019,10,28,10,53,7.90
2019,10,28,10,54,8.00
2019,10,28,10,55,8.00
2019,10,28,10,56,8.00
2019,10,28,10,57,8.00
2019,10,28,10,58,8.00
2019,10,28,10,59,8.00
2019,10,28,11,00,8.00
2019,10,28,11,01,8.10
2019,10,28,11,02,8.10
2019,10,28,11,03,8.20
2019,10,28,11,04,8.20
2019,10,28,11,05,8.20
2019,10,28,11,06,8.30
2019,10,28,11,07,8.30
2019,10,28,11,08,8.40
2019,10,28,11,09,8.40
2019,10,28,11,10,8.40
2019,10,28,11,11,8.40
2019,10,28,11,12,8.50
2019,10,28,11,13,8.60
2019,10,28,11,14,8.60
2019,10,28,11,15,8.70
2019,10,28,11,16,8.70
2019,10,28,11,17,8.70
2019,10,28,11,18,8.80
2019,10,28,11,19,8.80
2019,10,28,11,20,8.90
2019,10,28,11,21,8.90
2019,10,28,11,22,9.00
2019,10,28,11,23,9.00
2019,10,28,11,24,9.10
2019,10,28,11,25,9.10
2019,10,28,11,26,9.10
2019,10,28,11,27,9.00
2019,10,28,11,28,9.00
2019,10,28,11,29,8.90
2019,10,28,11,30,8.90
2019,10,28,11,31,8.80
2019,10,28,11,32,8.80
2019,10,28,11,33,8.80
2019,10,28,11,34,8.80
2019,10,28,11,35,8.80
2019,10,28,11,36,8.90
2019,10,28,11,37,8.90
2019,10,28,11,38,8.90
2019,10,28,11,39,8.80
2019,10,28,11,40,8.80
2019,10,28,11,41,8.80
2019,10,28,11,42,8.70
2019,10,28,11,43,8.70
2019,10,28,11,44,8.70
2019,10,28,11,45,8.70
2019,10,28,11,46,8.70
2019,10,28,11,47,8.70
2019,10,28,11,48,8.80
2019,10,28,11,49,8.80
2019,10,28,11,50,8.80
2019,10,28,11,51,8.90
2019,10,28,11,52,8.90
2019,10,28,11,53,8.90
2019,10,28,11,54,9.00
2019,10,28,11,55,9.00
2019,10,28,11,56,9.10
2019,10,28,11,57,9.20
2019,10,28,11,58,9.20
2019,10,28,11,59,9.30
2019,10,28,12,00,9.30
2019,10,28,12,01,9.40
2019,10,28,12,02,9.40
2019,10,28,12,03,9.40
2019,10,28,12,04,9.40
2019,10,28,12,05,9.40
2019,10,28,12,06,9.50
2019,10,28,12,07,9.50
2019,10,28,12,08,9.50
2019,10,28,12,09,9.50
2019,10,28,12,10,9.50
2019,10,28,12,11,9.40
2019,10,28,12,12,9.40
2019,10,28,12,13,9.40
2019,10,28,12,14,9.40
2019,10,28,12,15,9.30
2019,10,28,12,16,9.30
2019,10,28,12,17,9.40
2019,10,28,12,18,9.40
2019,10,28,12,19,9.50
2019,10,28,12,20,9.60
2019,10,28,12,21,9.60
2019,10,28,12,22,9.60
2019,10,28,12,23,9.50
2019,10,28,12,24,9.40
2019,10,28,12,25,9.40
2019,10,28,12,26,9.40
2019,10,28,12,27,9.50
2019,10,28,12,28,9.60
2019,10,28,12,29,9.60
2019,10,28,12,30,9.50
2019,10,28,12,31,9.40
2019,10,28,12,32,9.40
2019,10,28,12,33,9.40
2019,10,28,12,34,9.40
2019,10,28,12,35,9.40
2019,10,28,12,36,9.50
2019,10,28,12,37,9.50
2019,10,28,12,38,9.60
2019,10,28,12,39,9.60
2019,10,28,12,40,9.60
2019,10,28,12,41,9.70
2019,10,28,12,42,9.70
2019,10,28,12,43,9.70
2019,10,28,12,44,9.70
2019,10,28,12,45,9.70
2019,10,28,12,46,9.70
2019,10,28,12,47,9.70
2019,10,28,12,48,9.70
2019,10,28,12,49,9.70
2019,10,28,12,50,9.70
2019,10,28,12,51,9.80
2019,10,28,12,52,9.80
2019,10,28,12,53,9.80
2019,10,28,12,54,9.90
2019,10,28,12,55,9.90
2019,10,28,12,56,9.80
2019,10,28,12,57,9.70
2019,10,28,12,58,9.70
2019,10,28,12,59,9.70
2019,10,28,13,00,9.70
2019,10,28,13,01,9.70
2019,10,28,13,02,9.60
2019,10,28,13,03,9.60
2019,10,28,13,04,9.60
2019,10,28,13,05,9.70
2019,10,28,13,06,9.70
2019,10,28,13,07,9.60
2019,10,28,13,08,9.60
2019,10,28,13,09,9.70
2019,10,28,13,10,9.70
2019,10,28,13,11,9.70
2019,10,28,13,12,9.70
2019,10,28,13,13,9.70
2019,10,28,13,14,9.80
2019,10,28,13,15,9.80
2019,10,28,13,16,9.80
2019,10,28,13,17,9.80
2019,10,28,13,18,9.90
2019,10,28,13,19,9.90
2019,10,28,13,20,9.90
2019,10,28,13,21,10.00
2019,10,28,13,22,9.90
2019,10,28,13,23,9.90
2019,10,28,13,24,9.80
2019,10,28,13,25,9.80
2019,10,28,13,26,9.70
2019,10,28,13,27,9.60
2019,10,28,13,28,9.70
2019,10,28,13,29,9.70
2019,10,28,13,30,9.80
2019,10,28,13,31,9.80
2019,10,28,13,32,9.80
2019,10,28,13,33,9.80
2019,10,28,13,34,9.80
2019,10,28,13,35,9.70
2019,10,28,13,36,9.60
2019,10,28,13,37,9.60
2019,10,28,13,38,9.60
2019,10,28,13,39,9.60
2019,10,28,13,40,9.60
2019,10,28,13,41,9.70
2019,10,28,13,42,9.80
2019,10,28,13,43,9.80
2019,10,28,13,44,9.80
2019,10,28,13,45,9.90
2019,10,28,13,46,9.90
2019,10,28,13,47,9.90
2019,10,28,13,48,10.00
2019,10,28,13,49,10.00
2019,10,28,13,50,10.10
2019,10,28,13,51,10.10
2019,10,28,13,52,10.20
2019,10,28,13,53,10.20
2019,10,28,13,54,10.20
2019,10,28,13,55,10.30
2019,10,28,13,56,10.30
2019,10,28,13,57,10.30
2019,10,28,13,58,10.30
2019,10,28,13,59,10.30
2019,10,28,14,00,10.20
2019,10,28,14,01,10.30
2019,10,28,14,02,10.30
2019,10,28,14,03,10.30
2019,10,28,14,04,10.30
2019,10,28,14,05,10.30
2019,10,28,14,06,10.20
2019,10,28,14,07,10.20
2019,10,28,14,08,10.20
2019,10,28,14,09,10.30
2019,10,28,14,10,10.30
2019,10,28,14,11,10.30
2019,10,28,14,12,10.30
2019,10,28,14,13,10.30
2019,10,28,14,14,10.30
2019,10,28,14,15,10.30
2019,10,28,14,16,10.30
2019,10,28,14,17,10.30
2019,10,28,14,18,10.30
2019,10,28,14,19,10.30
2019,10,28,14,20,10.30
2019,10,28,14,21,10.20
2019,10,28,14,22,10.20
2019,10,28,14,23,10.30
2019,10,28,14,24,10.30
2019,10,28,14,25,10.30
2019,10,28,14,26,10.30
2019,10,28,14,27,10.30
2019,10,28,14,28,10.30
2019,10,28,14,29,10.40
2019,10,28,14,30,10.50
2019,10,28,14,31,10.50
2019,10,28,14,32,10.50
2019,10,28,14,33,10.50
2019,10,28,14,34,10.40
2019,10,28,14,35,10.30
2019,10,28,14,36,10.30
2019,10,28,14,37,10.30
2019,10,28,14,38,10.30
2019,10,28,14,39,10.30
2019,10,28,14,40,10.40
2019,10,28,14,41,10.40
2019,10,28,14,42,10.50
2019,10,28,14,43,10.50
2019,10,28,14,44,10.50
2019,10,28,14,45,10.60
2019,10,28,14,46,10.60
2019,10,28,14,47,10.60
2019,10,28,14,48,10.60
2019,10,28,14,49,10.60
2019,10,28,14,50,10.50
2019,10,28,14,51,10.50
2019,10,28,14,52,10.50
2019,10,28,14,53,10.50
2019,10,28,14,54,10.50
2019,10,28,14,55,10.50
2019,10,28,14,56,10.60
2019,10,28,14,57,10.60
2019,10,28,14,58,10.60
2019,10,28,14,59,10.60
2019,10,28,15,00,10.60
2019,10,28,15,01,10.60
2019,10,28,15,02,10.60
2019,10,28,15,03,10.50
2019,10,28,15,04,10.50
2019,10,28,15,05,10.50
2019,10,28,15,06,10.50
2019,10,28,15,07,10.40
2019,10,28,15,08,10.40
2019,10,28,15,09,10.30
2019,10,28,15,10,10.30
2019,10,28,15,11,10.30
2019,10,28,15,12,10.30
2019,10,28,15,13,10.30
2019,10,28,15,14,10.30
2019,10,28,15,15,10.30
2019,10,28,15,16,10.30
2019,10,28,15,17,10.30
2019,10,28,15,18,10.30
2019,10,28,15,19,10.30
2019,10,28,15,20,10.30
2019,10,28,15,21,10.30
2019,10,28,15,22,10.30
2019,10,28,15,23,10.30
2019,10,28,15,24,10.30
2019,10,28,15,25,10.30
2019,10,28,15,26,10.30
2019,10,28,15,27,10.30
2019,10,28,15,28,10.30
2019,10,28,15,29,10.30
2019,10,28,15,30,10.30
2019,10,28,15,31,10.30
2019,10,28,15,32,10.30
2019,10,28,15,33,10.30
2019,10,28,15,34,10.40
2019,10,28,15,35,10.40
2019,10,28,15,36,10.50
2019,10,28,15,37,10.50
2019,10,28,15,38,10.40
2019,10,28,15,39,10.40
2019,10,28,15,40,10.40
2019,10,28,15,41,10.40
2019,10,28,15,42,10.40
2019,10,28,15,43,10.40
2019,10,28,15,44,10.30
2019,10,28,15,45,10.30
2019,10,28,15,46,10.30
2019,10,28,15,47,10.40
2019,10,28,15,48,10.40
2019,10,28,15,49,10.40
2019,10,28,15,50,10.50
2019,10,28,15,51,10.50
2019,10,28,15,52,10.50
2019,10,28,15,53,10.50
2019,10,28,15,54,10.50
2019,10,28,15,55,10.50
2019,10,28,15,56,10.50
2019,10,28,15,57,10.50
2019,10,28,15,58,10.50
2019,10,28,15,59,10.60
2019,10,28,16,00,10.60
2019,10,28,16,01,10.60
2019,10,28,16,02,10.70
2019,10,28,16,03,10.70
2019,10,28,16,04,10.70
2019,10,28,16,05,10.70
2019,10,28,16,06,10.60
2019,10,28,16,07,10.60
2019,10,28,16,08,10.60
2019,10,28,16,09,10.60
2019,10,28,16,10,10.60
2019,10,28,16,11,10.60
2019,10,28,16,12,10.60
2019,10,28,16,13,10.60
2019,10,28,16,14,10.60
2019,10,28,16,15,10.60
2019,10,28,16,16,10.60
2019,10,28,16,17,10.60
2019,10,28,16,18,10.60
2019,10,28,16,19,10.60
2019,10,28,16,20,10.60
2019,10,28,16,21,10.60
2019,10,28,16,22,10.60
2019,10,28,16,23,10.60
2019,10,28,16,24,10.60
2019,10,28,16,25,10.60
2019,10,28,16,26,10.50
2019,10,28,16,27,10.50
2019,10,28,16,28,10.50
2019,10,28,16,29,10.50
2019,10,28,16,30,10.40
2019,10,28,16,31,10.40
2019,10,28,16,32,10.40
2019,10,28,16,33,10.40
2019,10,28,16,34,10.40
2019,10,28,16,35,10.30
2019,10,28,16,36,10.30
2019,10,28,16,37,10.30
2019,10,28,16,38,10.30
2019,10,28,16,39,10.30
2019,10,28,16,40,10.30
2019,10,28,16,41,10.30
2019,10,28,16,42,10.30
2019,10,28,16,43,10.30
2019,10,28,16,44,10.30
2019,10,28,16,45,10.30
2019,10,28,16,46,10.30
2019,10,28,16,47,10.30
2019,10,28,16,48,10.30
2019,10,28,16,49,10.30
2019,10,28,16,50,10.30
2019,10,28,16,51,10.30
2019,10,28,16,52,10.30
2019,10,28,16,53,10.30
2019,10,28,16,54,10.30
2019,10,28,16,55,10.30
2019,10,28,16,56,10.30
2019,10,28,16,57,10.20
2019,10,28,16,58,10.20
2019,10,28,16,59,10.20
2019,10,28,17,00,10.20
2019,10,28,17,01,10.20
2019,10,28,17,02,10.20
2019,10,28,17,03,10.20
2019,10,28,17,04,10.20
2019,10,28,17,05,10.20
2019,10,28,17,06,10.20
2019,10,28,17,07,10.20
2019,10,28,17,08,10.10
2019,10,28,17,09,10.10
2019,10,28,17,10,10.10
2019,10,28,17,11,10.10
2019,10,28,17,12,10.10
2019,10,28,17,13,10.10
2019,10,28,17,14,10.10
2019,10,28,17,15,10.10
2019,10,28,17,16,10.10
2019,10,28,17,17,10.10
2019,10,28,17,18,10.00
2019,10,28,17,19,10.00
2019,10,28,17,20,10.00
2019,10,28,17,21,9.90
2019,10,28,17,22,9.90
2019,10,28,17,23,9.80
2019,10,28,17,24,9.80
2019,10,28,17,25,9.80
2019,10,28,17,26,9.80
2019,10,28,17,27,9.70
2019,10,28,17,28,9.70
2019,10,28,17,29,9.70
2019,10,28,17,30,9.70
2019,10,28,17,31,9.70
2019,10,28,17,32,9.70
2019,10,28,17,33,9.70
2019,10,28,17,34,9.70
2019,10,28,17,35,9.70
2019,10,28,17,36,9.70
2019,10,28,17,37,9.60
2019,10,28,17,38,9.60
2019,10,28,17,39,9.50
2019,10,28,17,40,9.50
2019,10,28,17,41,9.50
2019,10,28,17,42,9.40
2019,10,28,17,43,9.40
2019,10,28,17,44,9.40
2019,10,28,17,45,9.30
2019,10,28,17,46,9.30
2019,10,28,17,47,9.30
2019,10,28,17,48,9.30
2019,10,28,17,49,9.30
2019,10,28,17,50,9.30
2019,10,28,17,51,9.30
2019,10,28,17,52,9.20
2019,10,28,17,53,9.20
2019,10,28,17,54,9.20
2019,10,28,17,55,9.10
2019,10,28,17,56,9.10
2019,10,28,17,57,9.10